Terminal Aerodrome Forecast
Issued by NWS

Home | Current Version | Previous Version | Graphics & Text | Print | Product List | Glossary On
Versions: 1 2 3 4 5 6 7 8 9 10 11 12 13 14 15 16
000
FTUS43 KIWX 251800 AAA
TAFSBN
TAF AMD
KSBN 251857Z 2519/2618 20009KT P6SM VCTS SCT025CB BKN035
      TEMPO 2520/2522 33015G30KT 4SM TSRA BR BKN025CB
     FM252200 20006KT P6SM BKN035
     FM260800 22004KT 5SM BR VCSH BKN035
     FM261500 25009KT P6SM SCT035=

USA.gov is the U.S. government's official web portal to all federal, state and local government web resources and services.